319  
ASUS41 KPHI 250513  
RWRPHI  
 
REGIONAL WEATHER ROUNDUP  
NATIONAL WEATHER SERVICE MOUNT HOLLY NJ  
100 AM EDT MON MAY 25 2020  
 
NOTE: "FAIR" INDICATES FEW OR NO CLOUDS BELOW 12,000 FEET WITH NO  
SIGNIFICANT WEATHER AND/OR S TO VISIBILITY
.  
 
* = STATION DOES NOT REPORT PRECIPITATION (E.G. RAIN, SNOW, ETC.)  
OR FOG.
 
 
NJZ015>026-250600-  
SOUTHERN NEW JERSEY  
 
CITY SKY/WX TMP DP RH WIND PRES REMARKS
 
POMONA CLOUDY 56 53 90 NE6 30.20F FOG  
WILDWOOD* LGT RAIN 55 54 96 N6 30.21S FOG  
MILLVILLE CLOUDY 56 54 93 N7 30.21S FOG  
WRIGHTSTOWN CLOUDY 56 55 96 NE6 30.21F  
MOUNT HOLLY CLOUDY 56 55 97 NE6 30.22S  
TRENTON CLOUDY 56 54 93 N3 30.22F FOG  
 

 
NJZ001>014-250600-  
NORTHERN NEW JERSEY  
 
CITY SKY/WX TMP DP RH WIND PRES REMARKS
 
SUSSEX CLOUDY 54 51 90 CALM 30.24F  
ANDOVER* N/A 55 52 89 CALM 30.23F  
MORRISTOWN CLOUDY 54 54 100 CALM 30.23F  
NEWARK CLOUDY 58 53 84 CALM 30.23S  
TETERBORO CLOUDY 58 52 80 CALM 30.22S  
CALDWELL CLOUDY 57 53 86 CALM 30.24F  
SOMERVILLE CLOUDY 57 53 86 VRB3 30.22S  
ALLAIRE* CLOUDY 54 N/A N/A NE10 30.23F HAZE  
TOMS RIVER* CLOUDY 54 53 97 NE6 30.22F FOG  
 

 
PAZ043-044-047-054-055-060>062-066>071-250600-  
EASTERN PENNSYLVANIA  
 
CITY SKY/WX TMP DP RH WIND PRES REMARKS
 
PHILADELPHIA CLOUDY 58 53 84 NE5 30.22F  
NORTH PHILA CLOUDY 59 56 89 N6 30.24F FOG  
BLUE BELL* CLOUDY 56 54 94 CALM 30.23F  
DOYLESTOWN CLOUDY 57 53 86 CALM 30.22F  
QUAKERTOWN* MOCLDY 54 54 100 CALM 30.24  
PERKASIE* CLOUDY 54 54 100 CALM 30.25F  
POTTSTOWN FAIR 53 51 93 VRB5 30.24F  
LANCASTER CLOUDY 61 53 75 SE9 30.19F  
COATESVILLE FAIR 55 52 88 E5 30.23F  
WEST CHESTER CLOUDY 55 52 88 E3 30.22F  
READING FAIR 59 54 83 SE5 30.19F  
ALLENTOWN FAIR 57 51 80 E10 30.23F  
QN CITY/ALNTWN FAIR 55 54 94 E8 30.24F  
MOUNT POCONO CLOUDY 52 50 93 SE7 30.22F  
HAZLETON CLOUDY 55 52 88 SE5 30.24F  
LEHIGHTON FAIR 52 52 100 CALM 30.23F  
WILKES BARRE FAIR 59 51 75 VRB3 30.20F  
 

 
DEZALL-MDZ008-012-015-019-020-250600-  
DELAWARE AND EASTERN MARYLAND  
 
CITY SKY/WX TMP DP RH WIND PRES REMARKS
 
WILMINGTON CLOUDY 57 52 83 NE7 30.23S  
DOVER CLOUDY 58 55 89 N6 30.20F  
CHESWOLD CLOUDY 59 55 88 NE6 30.21F  
GEORGETOWN CLOUDY 57 56 96 NE5 30.20F FOG  
ABERDEEN CLOUDY 61 56 82 NE3 30.20  
PATUXENT CLOUDY 60 57 89 NE6 N/A  
OCEAN CITY CLOUDY N/A N/A N/A NE7 30.19F FOG  
WALLOPS ISLAND CLOUDY 54 54 100 N7 30.18F FOG  
SALISBURY CLOUDY 56 53 90 N6 30.18F FOG  
 

 
PAZ001-021-NYZ056-072-MDZ011-DCZ001-250600-  
OTHER NEARBY LOCATIONS  
 
CITY SKY/WX TMP DP RH WIND PRES REMARKS
 
HARRISBURG CLOUDY 62 57 83 SE9 30.18F  
STATE COLLEGE CLOUDY 62 57 84 S5 30.16F  
WILLIAMSPORT CLOUDY 65 55 70 S17G33 30.13F  
BINGHAMTON FAIR 58 52 80 S8 30.16F  
NEW YORK CITY CLOUDY 59 52 77 MISG 30.25F  
BALTIMORE CLOUDY 62 56 80 E5 30.20S  
WASHINGTON DC CLOUDY 63 58 83 SE6 30.20F  
 

 
 
 
CLICK HERE TO GO TO PREVIOUS BULLETINS.

The Nexlab PA Page
The Nexlab NJ Page
The Nexlab DE Page
The Nexlab MD Page Main Text Page